Weather in Altynkul

Uzbekistan     40˚48′03″N   72˚10′27″E
temp.,
°C
wind,
m/s
gust,
m/s
humid.,
%
clouds,
%
prec.,
mm/h
press.,
hPa
HPBL,
m
3 december, thu
thu323:00+7˚ne0183100 0.4 102642
02:00+6˚ssw1194100 2.4 102756
05:00+6˚ne2393100 2.8 1027105
08:00+6˚e1190100 0.1 102850
11:00+8˚nne1284100 0.4 1027188
14:00+10˚ene127385 0.0 1025470
17:00+9˚wnw017993 0.0 102764
20:00+8˚ne0191100 1.4 102680
4 december, fri
fri423:00+8˚e0194100 2.5 102570
02:00+7˚w1197100 2.4 1023101
05:00+7˚wsw2496100 5.3 1023290
08:00+7˚sw2489100 1.3 1024308
11:00+6˚nw2389100 3.0 1024293
14:00+7˚n1177100 0.1 1023341
17:00+6˚ene1183100 0.8 1024181
20:00+6˚w0285100 1.9 1026371
5 december, sat
sat523:00+6˚ssw0370100 2.4 1026518
02:00+5˚w2555100 0.0 1027686
05:00+3˚ese2391100 0.4 1028228
08:00+3˚e3489100 0.1 1029224
11:00+5˚e2377100 0.1 1028410
14:00+7˚e226699 0.0 1026665
17:00+5˚e2374100 0.0 1029192
20:00+5˚e2274100 0.0 1031116
6 december, sun
sun623:00+4˚ne227794 0.0 103186
02:00+3˚ene117566 0.0 103136
05:00+2˚e127163 0.0 103136
08:00+2˚e116393 0.0 103261
11:00+6˚ene124487 0.0 1030394
14:00+8˚nne113918 0.0 1028608
17:00+6˚ne114513 0.0 102847
20:00+5˚ene125033 0.0 102850
7 december, mon
mon723:00+3˚e125467 0.0 102760
02:00+3˚e1256100 0.0 102647
05:00+3˚ene1255100 0.0 102468
08:00+3˚ese1153100 0.0 102533
11:00+5˚wsw1248100 0.0 1024307
14:00+5˚wnw2253100 0.1 1024399
17:00+4˚nne2266100 0.1 1027242
20:00+4˚ne2368100 0.0 1029189